GW5279 Weather Reports


Display with metric or nautical units.
time (UTC)temp
F
wind
direction
speed
MPH
gust
MPH
rain 1hr
in
rain 24hr
in
rain mn
in
humidity
%
barometer
mb
20260510060642 55 238 0.0 0.0 0.00 0.00 0.00 88 1013.7
20260510060139 54 149 0.0 0.0 0.00 0.00 0.00 89 1013.7
20260510055635 55 149 0.0 0.0 0.00 0.00 0.00 88 1013.7
20260510055134 54 217 0.0 0.0 0.00 0.00 0.00 89 1013.8
20260510054629 54 218 0.0 0.0 0.00 0.00 0.00 88 1013.8
20260510054125 55 229 0.0 0.0 0.00 0.00 0.00 87 1013.7
20260510053624 55 243 0.0 0.0 0.00 0.00 0.00 86 1014.0
20260510053121 56 249 0.0 2.0 0.00 0.00 0.00 86 1014.0
20260510052617 57 284 0.0 0.0 0.00 0.00 0.00 84 1014.0
20260510052114 58 285 0.0 1.0 0.00 0.00 0.00 82 1014.0
20260510051609 58 233 0.0 0.0 0.00 0.00 0.00 81 1014.0
20260510051106 57 233 0.0 1.0 0.00 0.00 0.00 82 1014.1
20260510050603 57 233 0.0 0.0 0.00 0.00 0.00 84 1014.1
20260510050100 57 233 1.0 3.0 0.00 0.00 0.00 83 1014.1
20260510045557 56 242 1.0 2.0 0.00 0.00 0.00 86 1013.9
20260510045053 55 242 0.0 1.0 0.00 0.00 0.00 86 1013.8
20260510044550 56 249 0.0 1.0 0.00 0.00 0.00 86 1013.8
20260510044048 54 249 0.0 4.0 0.00 0.00 0.00 88 1014.0
20260510043543 53 159 0.0 0.0 0.00 0.00 0.00 92 1013.9
20260510043039 53 159 0.0 0.0 0.00 0.00 0.00 91 1013.7
20260510042538 53 154 0.0 0.0 0.00 0.00 0.00 92 1013.7
20260510042033 52 154 0.0 0.0 0.00 0.00 0.00 92 1013.7
20260510041531 53 154 0.0 0.0 0.00 0.00 0.00 91 1013.8
20260510041028 53 155 0.0 0.0 0.00 0.00 0.00 91 1013.7
20260510040525 53 200 0.0 1.0 0.00 0.00 0.00 91 1013.6
20260510040021 52 261 0.0 0.0 0.00 0.01 0.01 93 1013.7
20260510035518 52 261 0.0 0.0 0.00 0.01 0.01 93 1013.7
20260510035016 52 261 0.0 1.0 0.00 0.01 0.01 94 1013.7
20260510034516 52 261 0.0 0.0 0.00 0.01 0.01 94 1013.4
20260510034012 50 204 0.0 0.0 0.00 0.01 0.01 96 1013.4
20260510033508 50 204 0.0 0.0 0.00 0.01 0.01 96 1013.4
20260510033007 50 204 0.0 0.0 0.00 0.01 0.01 96 1013.4
20260510032503 50 204 0.0 1.0 0.00 0.01 0.01 96 1013.3
20260510032003 50 204 0.0 0.0 0.00 0.01 0.01 96 1013.2
20260510031458 50 204 0.0 1.0 0.00 0.01 0.01 96 1013.3
20260510030954 50 204 0.0 0.0 0.00 0.01 0.01 96 1013.2
20260510030449 50 204 0.0 0.0 0.00 0.01 0.01 96 1013.1
20260510025947 50 204 0.0 0.0 0.00 0.01 0.01 96 1013.1
20260510025444 50 204 0.0 0.0 0.00 0.01 0.01 96 1013.3
20260510024942 50 204 1.0 1.0 0.00 0.01 0.01 95 1013.1
20260510024438 51 204 0.0 0.0 0.00 0.01 0.01 95 1013.2
20260510023934 51 204 0.0 0.0 0.00 0.01 0.01 95 1013.2
20260510023431 51 204 0.0 0.0 0.00 0.01 0.01 95 1013.2
20260510022928 51 204 0.0 0.0 0.00 0.01 0.01 95 1013.1
20260510022427 51 204 0.0 1.0 0.00 0.01 0.01 94 1012.9
20260510021926 51 204 0.0 0.0 0.00 0.01 0.01 93 1012.9
20260510021424 52 204 0.0 0.0 0.00 0.01 0.01 93 1012.9
20260510020920 52 204 0.0 1.0 0.00 0.01 0.01 93 1012.8
20260510020415 52 204 0.0 1.0 0.00 0.01 0.01 93 1012.9
20260510015911 52 204 1.0 1.0 0.00 0.01 0.01 92 1012.8
20260510015407 53 204 0.0 1.0 0.00 0.01 0.01 91 1012.8
20260510014908 53 204 0.0 0.0 0.00 0.01 0.01 91 1012.3
20260510014406 53 204 0.0 1.0 0.00 0.01 0.01 90 1012.2
20260510013902 54 204 0.0 1.0 0.00 0.01 0.01 90 1012.1
20260510013357 54 204 0.0 1.0 0.00 0.01 0.01 88 1012.0
20260510012852 55 204 0.0 0.0 0.00 0.01 0.01 88 1012.2
20260510012347 55 204 0.0 0.0 0.00 0.01 0.01 87 1012.1
20260510011842 55 204 0.0 0.0 0.00 0.01 0.01 86 1012.1
20260510011337 55 204 0.0 0.0 0.00 0.01 0.01 85 1012.0
20260510010834 56 204 0.0 0.0 0.00 0.01 0.01 84 1011.9
20260510010331 56 204 0.0 0.0 0.00 0.01 0.01 83 1011.9
20260510005828 58 204 1.0 1.0 0.00 0.01 0.01 81 1011.8
20260510005324 59 204 1.0 1.0 0.00 0.01 0.01 78 1011.9
20260510004822 60 205 0.0 1.0 0.00 0.01 0.01 74 1011.7
20260510004319 61 205 0.0 1.0 0.00 0.01 0.01 71 1011.7
20260510003817 62 228 0.0 1.0 0.00 0.01 0.01 68 1011.7
20260510003314 63 244 0.0 1.0 0.00 0.01 0.01 67 1011.5
20260510002812 64 245 0.0 1.0 0.00 0.01 0.01 65 1011.6
20260510002310 64 241 0.0 1.0 0.00 0.01 0.01 65 1011.4
20260510001806 64 266 0.0 0.0 0.00 0.01 0.01 65 1011.3
20260510001305 65 265 0.0 2.0 0.00 0.01 0.01 64 1011.2
20260510000800 65 266 1.0 2.0 0.00 0.01 0.01 62 1011.4
20260510000258 65 244 0.0 1.0 0.00 0.01 0.01 62 1011.3
20260509235755 66 269 1.0 3.0 0.00 0.01 0.01 61 1011.1
20260509235251 66 260 2.0 3.0 0.00 0.01 0.01 61 1011.1
20260509234747 66 260 2.0 4.0 0.00 0.01 0.01 60 1011.0
20260509234244 66 263 4.0 4.0 0.00 0.01 0.01 60 1011.0
20260509233742 66 279 2.0 7.0 0.00 0.01 0.01 60 1011.1
20260509233240 66 275 5.0 6.0 0.00 0.01 0.01 59 1011.1
20260509232735 66 229 3.0 4.0 0.00 0.01 0.01 60 1010.9
20260509232233 66 248 4.0 6.0 0.00 0.01 0.01 60 1010.9
20260509231729 66 271 2.0 3.0 0.00 0.01 0.01 60 1011.0
20260509231226 66 276 3.0 4.0 0.00 0.01 0.01 59 1011.0
20260509230724 66 243 2.0 7.0 0.00 0.01 0.01 60 1011.0
20260509230221 67 262 4.0 7.0 0.00 0.01 0.01 58 1010.9
20260509225716 67 272 2.0 3.0 0.00 0.01 0.01 58 1011.0
20260509225212 68 240 1.0 6.0 0.00 0.01 0.01 59 1011.1
20260509224708 68 228 3.0 15.0 0.00 0.01 0.01 57 1011.2
20260509224206 68 252 1.0 6.0 0.00 0.01 0.01 59 1011.3
20260509223703 69 267 4.0 6.0 0.00 0.01 0.01 55 1011.3
20260509223159 69 260 2.0 8.0 0.00 0.01 0.01 55 1011.2
20260509222656 69 216 2.0 4.0 0.00 0.01 0.01 55 1011.2
20260509222151 70 292 4.0 7.0 0.00 0.01 0.01 53 1011.2
20260509221647 69 309 1.0 10.0 0.00 0.01 0.01 56 1011.1
20260509221143 69 276 4.0 6.0 0.00 0.01 0.01 55 1011.3
20260509220639 70 288 7.0 8.0 0.00 0.01 0.01 52 1011.2
20260509220135 71 265 0.0 2.0 0.00 0.01 0.01 55 1011.4
20260509215632 70 281 6.0 8.0 0.00 0.01 0.01 55 1011.4
20260509215128 69 228 3.0 6.0 0.00 0.01 0.01 54 1011.4
20260509214626 69 263 5.0 7.0 0.00 0.01 0.01 55 1011.4
20260509214122 70 294 5.0 8.0 0.00 0.01 0.01 53 1011.4
20260509213619 69 290 2.0 3.0 0.00 0.01 0.01 55 1011.3
20260509213115 70 298 3.0 4.0 0.00 0.01 0.01 55 1011.5
20260509212613 70 282 3.0 4.0 0.00 0.01 0.01 55 1011.5
20260509212110 70 233 2.0 4.0 0.00 0.01 0.01 57 1011.4
20260509211605 68 7 1.0 9.0 0.00 0.01 0.01 56 1011.4
20260509211102 68 275 2.0 4.0 0.00 0.01 0.01 57 1011.5
20260509210559 68 230 2.0 7.0 0.00 0.01 0.01 59 1011.4
20260509210056 67 256 4.0 6.0 0.00 0.01 0.01 58 1011.6
20260509205550 67 300 3.0 8.0 0.00 0.01 0.01 59 1011.6
20260509205045 67 231 2.0 7.0 0.00 0.01 0.01 59 1011.2
20260509204542 68 229 5.0 6.0 0.00 0.01 0.01 55 1011.5
20260509204038 67 4 1.0 2.0 0.00 0.01 0.01 59 1011.4
20260509203534 68 252 5.0 8.0 0.00 0.01 0.01 57 1011.4
20260509203033 68 289 1.0 4.0 0.00 0.01 0.01 60 1011.4
20260509202532 68 275 0.0 4.0 0.00 0.01 0.01 58 1011.6
20260509202028 68 271 0.0 3.0 0.00 0.01 0.01 58 1011.4
20260509201523 67 272 4.0 6.0 0.00 0.01 0.01 57 1011.5
20260509201021 68 218 4.0 8.0 0.00 0.01 0.01 55 1011.5
20260509200521 68 263 3.0 8.0 0.00 0.01 0.01 57 1011.6
20260509200018 68 204 6.0 8.0 0.00 0.01 0.01 55 1011.6
20260509195514 69 250 4.0 8.0 0.00 0.01 0.01 54 1011.8
20260509195013 69 228 3.0 4.0 0.00 0.01 0.01 53 1011.6
20260509194509 67 243 1.0 3.0 0.00 0.01 0.01 58 1011.7
20260509194007 66 290 2.0 8.0 0.00 0.01 0.01 58 1012.0
20260509193506 69 217 4.0 6.0 0.00 0.01 0.01 55 1011.7
20260509193003 67 254 2.0 8.0 0.00 0.01 0.01 57 1011.7
20260509192459 69 260 3.0 4.0 0.00 0.01 0.01 56 1011.8
20260509191954 68 237 2.0 7.0 0.00 0.01 0.01 55 1011.7
20260509191450 69 226 2.0 4.0 0.00 0.01 0.01 56 1011.6
20260509190946 67 296 4.0 6.0 0.00 0.01 0.01 57 1011.6
20260509190443 67 220 3.0 8.0 0.00 0.01 0.01 57 1011.7
20260509185941 67 252 2.0 9.0 0.00 0.01 0.01 57 1011.7
20260509185438 66 240 2.0 4.0 0.00 0.01 0.01 58 1011.6
20260509184934 67 238 2.0 9.0 0.00 0.01 0.01 59 1011.8
20260509184432 67 170 1.0 2.0 0.00 0.01 0.01 57 1011.8
20260509183928 66 274 1.0 3.0 0.00 0.01 0.01 57 1011.8
20260509183423 67 247 2.0 4.0 0.00 0.01 0.01 55 1011.8
20260509182920 66 272 1.0 2.0 0.00 0.01 0.01 58 1011.7
20260509182416 67 245 4.0 7.0 0.00 0.01 0.01 55 1011.7
20260509181914 67 308 0.0 2.0 0.00 0.01 0.01 60 1011.7
20260509181411 66 286 4.0 4.0 0.00 0.01 0.01 57 1011.8
20260509180908 67 249 3.0 6.0 0.00 0.01 0.01 55 1011.8
20260509180404 68 158 0.0 3.0 0.00 0.01 0.01 57 1011.5
20260509175901 66 204 1.0 2.0 0.00 0.01 0.01 60 1011.6
20260509175357 65 266 1.0 3.0 0.00 0.01 0.01 60 1011.7
20260509174853 64 195 3.0 6.0 0.00 0.01 0.01 58 1011.7
20260509174350 64 320 0.0 3.0 0.00 0.01 0.01 59 1011.9
20260509173845 64 264 2.0 3.0 0.00 0.01 0.01 60 1012.0
20260509173341 64 238 2.0 4.0 0.00 0.01 0.01 59 1012.1
20260509172837 64 290 1.0 2.0 0.00 0.01 0.01 58 1012.0
20260509172334 64 265 1.0 4.0 0.00 0.01 0.01 61 1012.2
20260509171830 63 153 0.0 2.0 0.00 0.01 0.01 59 1012.1
20260509171325 63 268 3.0 3.0 0.00 0.01 0.01 60 1012.1
20260509170822 63 227 3.0 6.0 0.00 0.01 0.01 60 1012.2
20260509170318 64 252 2.0 3.0 0.00 0.01 0.01 64 1012.2
20260509165818 63 245 0.0 4.0 0.00 0.01 0.01 65 1012.1
20260509165313 63 231 0.0 2.0 0.00 0.01 0.01 68 1012.2
20260509164809 62 251 3.0 3.0 0.00 0.01 0.01 66 1012.0
20260509164305 62 250 2.0 4.0 0.00 0.01 0.01 67 1012.2
20260509163802 62 130 2.0 3.0 0.00 0.01 0.01 67 1012.2
20260509163259 62 154 0.0 2.0 0.00 0.01 0.01 68 1012.2
20260509162758 61 153 0.0 1.0 0.00 0.01 0.01 68 1012.1
20260509162256 62 250 1.0 1.0 0.00 0.01 0.01 67 1012.3
20260509161753 61 249 0.0 1.0 0.00 0.01 0.01 68 1011.9
20260509161248 61 221 1.0 1.0 0.00 0.01 0.01 69 1012.1
20260509160744 61 127 0.0 2.0 0.00 0.01 0.01 68 1012.3
20260509160241 60 105 0.0 0.0 0.00 0.01 0.01 69 1012.3
20260509155736 60 105 2.0 3.0 0.00 0.01 0.01 70 1012.3
20260509155233 60 225 1.0 1.0 0.00 0.01 0.01 69 1012.2
20260509154729 60 84 2.0 3.0 0.00 0.01 0.01 71 1012.3
20260509154226 60 146 0.0 1.0 0.00 0.01 0.01 73 1012.3
20260509153724 60 204 0.0 1.0 0.00 0.01 0.01 73 1012.3
20260509153219 60 90 3.0 3.0 0.00 0.01 0.01 74 1012.1
20260509152716 60 225 2.0 3.0 0.00 0.01 0.01 72 1012.2
20260509152212 60 249 4.0 6.0 0.00 0.01 0.01 72 1012.6
20260509151709 60 134 2.0 6.0 0.00 0.01 0.01 75 1012.5
20260509151206 60 137 0.0 3.0 0.00 0.01 0.01 75 1012.7
20260509150704 59 177 1.0 2.0 0.00 0.01 0.01 74 1012.5
20260509150202 59 120 2.0 3.0 0.00 0.01 0.01 75 1012.8
20260509145658 59 279 0.0 2.0 0.00 0.01 0.01 74 1012.9
20260509145153 58 279 0.0 2.0 0.00 0.01 0.01 75 1012.9
20260509144650 58 142 2.0 2.0 0.00 0.01 0.01 76 1012.6
20260509144148 58 139 0.0 2.0 0.00 0.01 0.01 77 1012.6
20260509143644 58 151 0.0 1.0 0.00 0.01 0.01 74 1012.6
20260509143142 58 202 0.0 0.0 0.00 0.01 0.01 78 1012.7
20260509142637 58 202 2.0 2.0 0.00 0.01 0.01 77 1012.8
20260509142134 59 123 0.0 2.0 0.00 0.01 0.01 76 1012.8
20260509141630 58 123 1.0 2.0 0.00 0.01 0.01 80 1012.6
20260509141126 58 115 0.0 2.0 0.00 0.01 0.01 81 1012.5
20260509140624 57 115 0.0 2.0 0.00 0.01 0.01 81 1012.5
20260509140122 57 123 1.0 3.0 0.00 0.01 0.01 81 1012.6
20260509135619 57 179 0.0 0.0 0.00 0.01 0.01 83 1012.8
20260509135117 57 179 0.0 0.0 0.00 0.01 0.01 88 1012.8
20260509134613 56 179 0.0 0.0 0.00 0.01 0.01 86 1012.9
20260509134110 56 179 1.0 2.0 0.00 0.01 0.01 88 1012.8
20260509133607 55 179 0.0 2.0 0.00 0.01 0.01 88 1012.8
20260509133104 56 187 0.0 0.0 0.00 0.01 0.01 89 1013.0
20260509132603 55 187 0.0 0.0 0.00 0.01 0.01 88 1013.3
20260509132101 55 187 0.0 0.0 0.00 0.01 0.01 87 1013.1
20260509131556 55 187 0.0 0.0 0.00 0.01 0.01 87 1013.3
20260509131054 55 187 0.0 0.0 0.00 0.01 0.01 87 1013.4
20260509130549 55 187 0.0 0.0 0.00 0.01 0.01 89 1013.3
20260509130046 55 187 0.0 0.0 0.00 0.01 0.01 89 1013.4
20260509125542 54 187 0.0 0.0 0.00 0.01 0.01 89 1013.3
20260509125039 54 187 0.0 0.0 0.00 0.01 0.01 90 1013.2
20260509124536 54 187 0.0 0.0 0.00 0.01 0.01 93 1013.1
20260509124033 53 187 0.0 0.0 0.00 0.01 0.01 94 1013.3
20260509123531 53 187 0.0 0.0 0.00 0.01 0.01 95 1013.5
20260509123027 52 187 0.0 0.0 0.00 0.01 0.01 95 1013.1
20260509122523 52 187 0.0 0.0 0.00 0.01 0.01 96 1013.1
20260509122021 52 187 0.0 0.0 0.00 0.01 0.01 96 1013.2
20260509121517 52 187 0.0 0.0 0.00 0.01 0.01 96 1013.3
20260509121015 52 187 0.0 0.0 0.00 0.01 0.01 96 1013.2
20260509120514 52 187 0.0 0.0 0.00 0.01 0.01 97 1013.3
20260509120011 52 187 0.0 0.0 0.00 0.01 0.01 97 1013.3
20260509115508 51 187 0.0 0.0 0.00 0.01 0.01 97 1013.4
20260509115006 51 187 0.0 0.0 0.00 0.01 0.01 97 1013.2
20260509114503 51 187 0.0 0.0 0.00 0.01 0.01 97 1013.1
20260509114002 51 187 0.0 0.0 0.00 0.01 0.01 97 1013.2
20260509113459 51 187 0.0 0.0 0.00 0.01 0.01 97 1013.2
20260509112957 51 187 0.0 0.0 0.00 0.01 0.01 97 1013.2
20260509112454 51 187 0.0 0.0 0.00 0.01 0.01 97 1013.4
20260509111950 51 187 0.0 0.0 0.00 0.01 0.01 97 1013.2
20260509111448 51 187 0.0 0.0 0.00 0.01 0.01 98 1013.1
20260509110945 51 187 0.0 0.0 0.00 0.01 0.01 98 1013.0
20260509110441 51 187 0.0 0.0 0.00 0.01 0.01 98 1013.0
20260509105939 51 187 0.0 0.0 0.00 0.01 0.01 98 1013.0
20260509105437 51 187 0.0 0.0 0.00 0.01 0.01 98 1013.0
20260509104934 51 187 0.0 0.0 0.00 0.01 0.01 97 1012.8
20260509104431 51 187 0.0 0.0 0.00 0.01 0.01 97 1012.8
20260509103928 51 187 0.0 0.0 0.00 0.01 0.01 97 1012.8
20260509103425 51 187 0.0 0.0 0.00 0.01 0.01 97 1012.9
20260509102924 51 187 0.0 0.0 0.00 0.01 0.01 97 1012.9
20260509102421 51 187 0.0 0.0 0.00 0.01 0.01 97 1012.8
20260509101916 51 187 0.0 0.0 0.00 0.01 0.01 97 1012.9
20260509101413 51 187 0.0 0.0 0.00 0.01 0.01 97 1012.8
20260509100911 51 187 0.0 0.0 0.00 0.01 0.01 96 1013.0
20260509100408 51 187 0.0 0.0 0.00 0.01 0.01 96 1013.0
20260509095904 51 187 0.0 0.0 0.00 0.01 0.01 96 1012.9
20260509095401 51 187 0.0 0.0 0.00 0.01 0.01 96 1012.7
20260509094858 51 187 0.0 0.0 0.00 0.01 0.01 96 1013.0
20260509094355 51 187 0.0 0.0 0.00 0.01 0.01 96 1013.1
20260509093853 51 187 0.0 0.0 0.00 0.01 0.01 96 1013.0
20260509093350 51 187 0.0 0.0 0.00 0.01 0.01 95 1013.1
20260509092848 51 187 0.0 0.0 0.00 0.01 0.01 95 1013.2
20260509092346 51 187 0.0 1.0 0.00 0.01 0.01 95 1013.1
20260509091844 52 189 0.0 0.0 0.00 0.01 0.01 94 1013.0
20260509091340 52 189 1.0 1.0 0.00 0.01 0.01 94 1013.2
20260509090838 52 189 0.0 1.0 0.00 0.01 0.01 92 1013.1
20260509090335 53 189 0.0 0.0 0.00 0.01 0.01 91 1013.3
20260509085832 53 189 0.0 0.0 0.00 0.01 0.01 89 1013.2
20260509085329 51 187 2.0 2.0 0.00 0.01 0.01 90 1013.3
20260509084826 51 108 0.0 0.0 0.00 0.01 0.01 96 1013.2
20260509084323 51 108 0.0 0.0 0.00 0.01 0.01 97 1013.3
20260509083821 51 108 0.0 1.0 0.00 0.01 0.01 97 1013.2
20260509083317 51 108 0.0 0.0 0.00 0.01 0.01 96 1013.3
20260509082814 51 108 0.0 0.0 0.00 0.01 0.01 96 1013.2
20260509082310 51 108 0.0 0.0 0.00 0.01 0.01 96 1013.2
20260509081808 51 111 0.0 1.0 0.00 0.01 0.01 96 1013.3
20260509081305 51 111 0.0 0.0 0.00 0.01 0.01 97 1013.5
20260509080803 51 111 0.0 0.0 0.00 0.01 0.01 97 1013.6
20260509080300 51 111 0.0 0.0 0.00 0.01 0.01 97 1013.5
20260509075758 51 111 1.0 1.0 0.00 0.01 0.01 97 1013.4
20260509075255 51 111 0.0 1.0 0.00 0.01 0.01 97 1013.2
20260509074752 51 111 0.0 0.0 0.00 0.01 0.01 96 1013.3
20260509074250 51 111 0.0 0.0 0.00 0.01 0.01 96 1013.0
20260509073746 51 111 0.0 0.0 0.00 0.01 0.01 96 1012.9
20260509073242 51 111 0.0 1.0 0.00 0.01 0.01 96 1012.8
20260509072739 51 111 0.0 0.0 0.00 0.01 0.01 96 1012.7
20260509072236 51 111 0.0 0.0 0.00 0.01 0.01 95 1012.9
20260509071733 51 111 0.0 0.0 0.00 0.01 0.01 95 1012.6
20260509071230 51 111 0.0 0.0 0.00 0.01 0.01 95 1012.6
20260509070727 51 111 0.0 0.0 0.00 0.01 0.01 95 1012.5
20260509070223 51 111 0.0 0.0 0.00 0.01 0.01 95 1012.7
20260509065719 51 111 0.0 0.0 0.00 0.01 0.01 95 1012.6
20260509065216 51 111 0.0 0.0 0.00 0.01 0.01 95 1012.5
20260509064712 51 111 1.0 2.0 0.00 0.01 0.01 95 1012.6
20260509064210 51 111 0.0 0.0 0.00 0.01 0.01 94 1012.5
20260509063707 52 116 3.0 3.0 0.00 0.01 0.01 93 1012.5
20260509063203 52 162 1.0 2.0 0.05 0.01 0.01 92 1012.7
20260509062700 52 145 0.0 0.0 0.05 0.01 0.01 90 1012.7
20260509062157 52 145 0.0 0.0 0.00 0.00 0.00 88 1012.8
20260509061654 52 145 0.0 0.0 0.00 0.00 0.00 88 1012.8
20260509061152 52 145 0.0 0.0 0.00 0.00 0.00 86 1012.8